This is the latest recevied weather packets stored in our database for station/object DB0LS-15. If no packets are shown the sender has not sent any weather packets the latest 10 day(s).
| Time | Temp. | Humidity | Pressure | Rain* | Wind** | Luminosity | Snow |
|---|---|---|---|---|---|---|---|
| 1777893363 | 22.22° C | 51% | 994.6 hPa | 0 mm | - | - | - |
| 1777892759 | 22.22° C | 51% | 994.5 hPa | 0 mm | - | - | - |
| 1777892156 | 21.67° C | 52% | 994.8 hPa | 0 mm | - | - | - |
| 1777891552 | 21.67° C | 50% | 995 hPa | 0 mm | - | - | - |
| 1777890948 | 21.11° C | 54% | 994.9 hPa | 0 mm | - | - | - |
| 1777890344 | 22.22° C | 52% | 995.1 hPa | 0 mm | - | - | - |
| 1777889741 | 20.56° C | 53% | 995.2 hPa | 0 mm | - | - | - |
| 1777889136 | 21.11° C | 53% | 995.3 hPa | 0 mm | - | - | - |
| 1777888533 | 21.11° C | 54% | 995.3 hPa | 0 mm | - | - | - |
| 1777887959 | 20.56° C | 56% | 995.5 hPa | 0 mm | - | - | - |
| 1777887355 | 20° C | 57% | 995.6 hPa | 0 mm | - | - | - |
| 1777886751 | 20° C | 57% | 995.6 hPa | 0 mm | - | - | - |
| 1777886148 | 20° C | 57% | 995.7 hPa | 0 mm | - | - | - |
| 1777885544 | 19.44° C | 58% | 995.7 hPa | 0 mm | - | - | - |
| 1777884940 | 19.44° C | 59% | 995.7 hPa | 0 mm | - | - | - |
| 1777884336 | 18.89° C | 60% | 995.8 hPa | 0 mm | - | - | - |
| 1777883733 | 18.89° C | 60% | 995.7 hPa | 0 mm | - | - | - |
| 1777883129 | 18.89° C | 59% | 995.8 hPa | 0 mm | - | - | - |
| 1777882525 | 18.89° C | 58% | 995.5 hPa | 0 mm | - | - | - |
| 1777881921 | 18.89° C | 59% | 995.7 hPa | 0 mm | - | - | - |
| 1777881318 | 18.89° C | 58% | 995.9 hPa | 0 mm | - | - | - |
| 1777880774 | 18.33° C | 58% | 995.8 hPa | 0 mm | - | - | - |
| 1777880170 | 18.33° C | 58% | 995.4 hPa | 0 mm | - | - | - |
| 1777879566 | 18.33° C | 60% | 995.4 hPa | 0 mm | - | - | - |
| 1777878963 | 17.78° C | 63% | 995.5 hPa | 0 mm | - | - | - |
* Rain latest hour (hover to see other rain measurements)
** Current wind speed in m/s (hover to see current wind gust speed)